Weather History for Sanford, FL

Change the Weather History Date:

Friday, August 2, 2013

  Actual Average Record
Temperature  
Mean Temperature 83 °F -  
Max Temperature 93 °F 91 °F 99 °F (1999)
Min Temperature 75 °F 71 °F 68 °F (1974)
Cooling Degree Days 18    
Growing Degree Days 33 (Base 50)    
Moisture  
Dew Point 73 °F    
Average Humidity 73    
Maximum Humidity 94    
Minimum Humidity 48    
Precipitation  
Precipitation 0.00 in - - ()
Sea Level Pressure  
Sea Level Pressure 30.00 in    
Wind  
Wind Speed 3 mph (ENE)    
Max Wind Speed 13 mph    
Max Gust Speed -    
Visibility 10 miles    
Events      
Averages and records for this station are not official NWS values.
T = Trace of Precipitation, MM = Missing Value Source: NWS Daily Summary

Daily Weather History Graph

Daily Weather History Graph

Search for Another Location

Airport:

Trip Planner

Search our weather history database for the weather conditions in past years. The results will help you decide how hot, cold, wet, or windy it might be!

Date:

Astronomy

Aug. 02, 2013 Rise Set
Actual Time 6:46 AM EDT 8:15 PM EDT
Civil Twilight 6:21 AM EDT 8:40 PM EDT
Nautical Twilight 5:50 AM EDT 9:11 PM EDT
Astronomical Twilight 5:19 AM EDT 9:42 PM EDT
Moon 3:10 AM EDT (8/2) 5:08 PM EDT (8/2)
Length of Visible Light 14h 19m
Length of Day
13h 28m
Waning Crescent, 16% of the Moon is Illuminated
Aug 2
Waning Crescent
Aug 6
New
Aug 14
First Quarter
Aug 20
Full
Aug 28
Last Quarter

Hourly Weather History & Observations

Time (EDT) Temp. Heat Index Dew Point Humidity Pressure Visibility Wind Dir Wind Speed Gust Speed Precip Events Conditions
12:53 AM 78.1 °F - 75.0 °F 90% 30.00 in 10.0 mi SE 3.5 mph - N/A   Clear
1:53 AM 77.0 °F - 73.9 °F 90% 29.99 in 10.0 mi Calm Calm - N/A   Clear
2:53 AM 75.9 °F - 73.9 °F 94% 29.99 in 10.0 mi Calm Calm - N/A   Clear
3:53 AM 75.9 °F - 73.9 °F 94% 29.97 in 10.0 mi Calm Calm - N/A   Clear
4:53 AM 77.0 °F - 73.9 °F 90% 29.96 in 10.0 mi Calm Calm - N/A   Clear
5:53 AM 75.9 °F - 73.0 °F 91% 29.97 in 10.0 mi Calm Calm - N/A   Clear
6:53 AM 75.0 °F - 73.0 °F 94% 29.99 in 10.0 mi Calm Calm - N/A   Clear
7:53 AM 79.0 °F - 75.0 °F 88% 30.00 in 10.0 mi Calm Calm - N/A   Clear
8:53 AM 82.0 °F 88.6 °F 75.0 °F 79% 30.01 in 10.0 mi Calm Calm - N/A   Clear
9:53 AM 82.9 °F 89.4 °F 73.9 °F 74% 30.02 in 10.0 mi Calm Calm - N/A   Clear
10:53 AM 88.0 °F 93.8 °F 71.1 °F 57% 30.04 in 10.0 mi Calm Calm - N/A   Partly Cloudy
11:53 AM 89.1 °F 97.0 °F 73.0 °F 59% 30.04 in 10.0 mi Variable 4.6 mph - N/A   Clear
12:53 PM 91.0 °F 96.6 °F 70.0 °F 50% 30.03 in 10.0 mi North 4.6 mph - N/A   Clear
1:53 PM 91.9 °F 97.4 °F 70.0 °F 48% 30.02 in 10.0 mi ENE 8.1 mph - N/A   Partly Cloudy
2:53 PM 91.9 °F 98.4 °F 71.1 °F 50% 30.01 in 10.0 mi ENE 6.9 mph - 0.00 in   Scattered Clouds
3:53 PM 91.0 °F 97.6 °F 71.1 °F 52% 29.99 in 10.0 mi NE 9.2 mph - N/A   Scattered Clouds
4:53 PM 91.0 °F 98.2 °F 72.0 °F 53% 29.98 in 10.0 mi ENE 12.7 mph - N/A   Mostly Cloudy
5:53 PM 89.1 °F 96.0 °F 72.0 °F 57% 29.98 in 10.0 mi East 11.5 mph - N/A   Clear
6:53 PM 87.1 °F 94.5 °F 73.0 °F 63% 29.98 in 10.0 mi East 10.4 mph - N/A   Clear
7:53 PM 84.0 °F 90.2 °F 73.0 °F 69% 30.01 in 10.0 mi ENE 6.9 mph - N/A   Clear
8:53 PM 82.0 °F 86.7 °F 72.0 °F 71% 30.02 in 10.0 mi Calm Calm - N/A   Clear
9:53 PM 81.0 °F 85.8 °F 73.0 °F 77% 30.03 in 10.0 mi Calm Calm - N/A   Clear
10:53 PM 81.0 °F 86.2 °F 73.9 °F 79% 30.05 in 10.0 mi Calm Calm - N/A   Clear
11:53 PM 80.1 °F 84.5 °F 73.9 °F 81% 30.03 in 10.0 mi Calm Calm - N/A   Clear